TimeGMT,TemperatureF,Dew PointF,Humidity,Sea Level PressureIn,VisibilityMPH,Wind Direction,Wind SpeedMPH,Gust SpeedMPH,PrecipitationIn,Events,Conditions,WindDirDegrees,DateUTC
12:00 AM,40,40,100,29.73,,SSE,17.9,,,,,150,2012-12-28 00:00:00
6:00 AM,49,49,99,29.55,3,SSW,24.6,,,Rain,Light Rain,210,2012-12-28 06:00:00
6:00 AM,50.0,48.2,94,29.53,-9999.0,SSW,24.2,35.7,N/A,Rain,Light Rain,210,2012-12-28 06:00:00
7:00 AM,50.0,48.2,94,29.53,-9999.0,SSW,23.0,39.1,N/A,Rain,Light Rain,210,2012-12-28 07:00:00
8:00 AM,50.0,48.2,94,29.50,-9999.0,SSW,23.0,35.7,N/A,Rain,Light Rain,200,2012-12-28 08:00:00
8:30 AM,50.0,50.0,100,29.50,3.1,SSW,24.2,-,N/A,Rain,Light Rain,210,2012-12-28 08:30:00
9:00 AM,50.0,50.0,100,29.50,3.7,SSW,24.2,42.6,N/A,Rain,Light Rain,200,2012-12-28 09:00:00
9:30 AM,48.2,48.2,100,29.50,-9999.0,SSW,23.0,34.5,N/A,Rain,Rain,200,2012-12-28 09:30:00
10:00 AM,50.0,48.2,94,29.50,2.2,SSW,20.7,35.7,N/A,Rain,Rain,200,2012-12-28 10:00:00
10:30 AM,50.0,48.2,94,29.47,3.7,South,24.2,-,N/A,,Light Drizzle,190,2012-12-28 10:30:00
11:00 AM,50.0,50.0,100,29.47,-9999.0,South,20.7,35.7,N/A,Rain,Rain,190,2012-12-28 11:00:00
12:00 PM,50,50,100,29.45,2,SSW,24.6,,,Rain,Light Rain,200,2012-12-28 12:00:00
12:00 PM,50.0,50.0,100,29.42,-9999.0,SSW,25.3,36.8,N/A,Rain,Rain,200,2012-12-28 12:00:00
12:30 PM,50.0,50.0,100,29.42,5.6,SSW,28.8,40.3,N/A,Rain,Light Rain,200,2012-12-28 12:30:00
1:00 PM,50.0,50.0,100,29.42,5.0,SSW,26.5,39.1,N/A,,Light Drizzle,200,2012-12-28 13:00:00
1:30 PM,51.8,48.2,88,29.39,5.0,South,23.0,36.8,N/A,,Mostly Cloudy,190,2012-12-28 13:30:00
2:00 PM,50.0,50.0,100,29.33,-9999.0,South,25.3,38.0,N/A,Rain,Light Drizzle,190,2012-12-28 14:00:00
2:30 PM,50.0,50.0,100,29.30,1.6,South,29.9,-,N/A,Rain,Rain,190,2012-12-28 14:30:00
3:00 PM,50.0,50.0,100,29.27,1.6,South,25.3,41.4,N/A,Rain,Light Rain,180,2012-12-28 15:00:00
3:30 PM,50.0,50.0,100,29.27,1.5,South,27.6,44.9,N/A,Rain,Light Rain,190,2012-12-28 15:30:00
4:00 PM,50.0,50.0,100,29.24,1.5,South,28.8,41.4,N/A,Rain,Light Drizzle,180,2012-12-28 16:00:00
4:30 PM,50.0,50.0,100,29.24,1.4,South,25.3,39.1,N/A,Rain,Rain,180,2012-12-28 16:30:00
5:00 PM,50.0,50.0,100,29.24,2.2,South,24.2,39.1,N/A,Rain,Light Drizzle,180,2012-12-28 17:00:00
6:00 PM,50,49,97,29.22,2,South,22.4,,,Rain,Light Drizzle,180,2012-12-28 18:00:00
6:00 PM,50.0,50.0,100,29.21,2.2,South,23.0,36.8,N/A,,Light Drizzle,180,2012-12-28 18:00:00
7:00 PM,50.0,50.0,100,29.15,5.0,SSW,32.2,49.5,N/A,,Light Drizzle,200,2012-12-28 19:00:00